This demonstration page uses our WeatherBlox Daily Observations layout. Learn more.

Left ArrowRight Arrow

Hourly Observations for July 12, 2016

Temp ( °F °C ) Dew Point ( °F °C ) Humidity (%) Winds ( mph kmh ) Pressure ( in mb ) Visibility ( mi km ) Precip ( " mm )
12:15 am 00:15 Clear 70 21 62 16.9 78 78 WNW 6 9 29.74 1007 10 16 N/A
12:35 am 00:35 Clear 68 19.9 62 16.6 81 81 WNW 5 7 29.74 1007 10 16 N/A
12:55 am 00:55 Clear 67 19.4 60 15.6 79 79 NW 6 9 29.71 1006 10 16 N/A
1:15 am 01:15 Clear 67 19.3 56 13.1 68 68 NNW 9 15 29.71 1006 10 16 N/A
1:35 am 01:35 Clear 65 18.5 54 12.1 66 66 NW 8 13 29.71 1006 10 16 N/A
1:55 am 01:55 Clear 64 17.7 53 11.7 68 68 NNW 8 13 29.71 1006 10 16 N/A
2:15 am 02:15 Clear 64 17.6 52 11.1 66 66 N 6 9 29.71 1006 10 16 N/A
2:35 am 02:35 Clear 62 16.6 52 11.2 71 71 NNW 9 15 29.74 1007 10 16 N/A
2:55 am 02:55 Clear 63 17.1 50 9.9 63 63 N 12 19 29.74 1007 10 16 N/A
3:15 am 03:15 Clear 63 17 48 8.7 58 58 NNE 9 15 29.80 1009 10 16 N/A
3:35 am 03:35 Clear 61 16.2 47 8.3 60 60 NNE 9 15 29.80 1009 10 16 N/A
3:55 am 03:55 Clear 62 16.6 46 7.8 56 56 NNE 9 15 29.83 1010 10 16 N/A
4:15 am 04:15 Clear 60 15.6 47 8.3 62 62 NNE 9 15 29.83 1010 10 16 N/A
4:35 am 04:35 Clear 60 15.5 47 8.1 62 62 N 9 15 29.80 1009 10 16 N/A
4:55 am 04:55 Clear 60 15.6 47 8.1 61 61 NNE 12 19 29.83 1010 10 16 N/A
5:15 am 05:15 Clear 60 15.5 47 8.2 62 62 NE 9 15 29.83 1010 10 16 N/A
5:35 am 05:35 Clear 59 14.9 47 8.5 66 66 NE 8 13 29.83 1010 10 16 N/A
5:55 am 05:55 Clear 58 14.3 48 9 71 71 NE 6 9 29.88 1012 10 16 N/A
6:15 am 06:15 Clear 56 13.6 49 9.6 77 77 NE 6 9 29.88 1012 10 16 N/A
6:35 am 06:35 Sunny 57 13.7 49 9.4 75 75 ENE 6 9 29.88 1012 10 16 N/A
6:55 am 06:55 Sunny 57 14 49 9.3 74 74 E 5 7 29.88 1012 10 16 N/A
7:15 am 07:15 Sunny 58 14.7 50 10.1 74 74 N N/A 29.91 1013 10 16 N/A
7:35 am 07:35 Sunny 60 15.8 50 10.2 70 70 N N/A 29.88 1012 10 16 N/A
7:55 am 07:55 Sunny 63 17.2 50 9.9 62 62 E 3 6 29.88 1012 10 16 N/A
8:15 am 08:15 Sunny 64 17.6 51 10.4 63 63 E 3 6 29.88 1012 10 16 N/A
8:35 am 08:35 Sunny 65 18.6 51 10.3 59 59 ESE 6 9 29.88 1012 10 16 N/A
8:55 am 08:55 Sunny 67 19.3 50 10.1 55 55 E 7 11 29.85 1011 10 16 N/A
9:15 am 09:15 Sunny 67 19.3 51 10.3 56 56 E 6 9 29.85 1011 10 16 N/A
9:35 am 09:35 Sunny 67 19.7 52 11 57 57 ENE 5 7 29.88 1012 10 16 N/A
9:55 am 09:55 Sunny 69 20.5 53 11.9 58 58 ENE 3 6 29.88 1012 10 16 N/A
10:15 am 10:15 Sunny 72 22.2 53 11.4 51 51 NNE 6 9 29.85 1011 10 16 N/A
10:35 am 10:35 Sunny 74 23.4 54 12.3 50 50 E 6 9 29.85 1011 10 16 N/A
10:55 am 10:55 Sunny 75 24.1 51 10.7 43 43 ESE 9 15 29.85 1011 10 16 N/A
11:15 am 11:15 Sunny 77 25.2 51 10.8 40 40 ESE 9 15 29.85 1011 10 16 N/A
11:35 am 11:35 Sunny 79 25.9 49 9.3 35 35 ESE 12 19 29.85 1011 10 16 N/A
11:55 am 11:55 Sunny 78 25.8 51 10.4 38 38 E 9 15 29.83 1010 10 16 N/A
12:15 pm 12:15 Sunny 79 26 52 11.1 39 39 E 8 13 29.83 1010 10 16 N/A
12:35 pm 12:35 Sunny 79 26.2 53 11.4 40 40 ENE 5 7 29.80 1009 10 16 N/A
12:55 pm 12:55 Sunny 80 26.4 54 12.3 42 42 E 3 6 29.80 1009 10 16 N/A
1:15 pm 13:15 Sunny 81 27.1 56 13.4 43 43 E 5 7 29.80 1009 10 16 N/A
1:35 pm 13:35 Sunny 81 27.2 56 13.6 43 43 ESE 6 9 29.80 1009 10 16 N/A
1:55 pm 13:55 Sunny 82 27.5 56 13.6 42 42 N N/A 29.77 1008 10 16 N/A
2:15 pm 14:15 Sunny 82 28 55 12.8 39 39 S 3 6 29.77 1008 10 16 N/A
2:35 pm 14:35 Sunny 83 28.6 55 12.9 38 38 S 3 6 29.77 1008 10 16 N/A
2:55 pm 14:55 Sunny 84 28.8 55 12.6 37 37 S 6 9 29.77 1008 10 16 N/A
3:15 pm 15:15 Sunny 84 29.1 57 14.1 40 40 S 6 9 29.77 1008 10 16 N/A
3:35 pm 15:35 Sunny 84 28.9 56 13.6 39 39 S 7 11 29.77 1008 10 16 N/A
3:55 pm 15:55 Sunny 85 29.2 57 14.1 40 40 N N/A 29.77 1008 10 16 N/A
4:15 pm 16:15 Sunny 85 29.5 53 11.9 34 34 SW 5 7 29.71 1006 10 16 N/A
4:35 pm 16:35 Sunny 86 29.8 56 13.1 36 36 S 6 9 29.71 1006 10 16 N/A
4:55 pm 16:55 Sunny 86 30 56 13.4 36 36 S 6 9 29.71 1006 10 16 N/A
5:15 pm 17:15 Sunny 86 29.9 55 13 35 35 S 5 7 29.71 1006 10 16 N/A
5:35 pm 17:35 Sunny 87 30.3 56 13.3 35 35 SSE 6 9 29.71 1006 10 16 N/A
5:55 pm 17:55 Sunny 86 30 55 13 35 35 ESE 3 6 29.68 1005 10 16 N/A
6:15 pm 18:15 Sunny 86 30.1 56 13.4 36 36 S 3 6 29.68 1005 10 16 N/A
6:35 pm 18:35 Sunny 86 30.1 55 13 35 35 SSE 6 9 29.68 1005 10 16 N/A
6:55 pm 18:55 Sunny 86 30.1 57 14 37 37 SSE 6 9 29.68 1005 10 16 N/A
7:15 pm 19:15 Sunny 86 30 59 14.8 40 40 SSE 6 9 29.68 1005 10 16 N/A
7:35 pm 19:35 Sunny 85 29.5 60 15.8 43 43 SSE 5 7 29.68 1005 10 16 N/A
7:55 pm 19:55 Sunny 84 29.1 63 17.1 48 48 SE 3 6 29.68 1005 10 16 N/A
8:15 pm 20:15 Sunny 83 28.5 64 17.8 52 52 SE 5 7 29.71 1006 10 16 N/A
8:35 pm 20:35 Sunny 81 27.2 65 18.5 59 59 SE 3 6 29.71 1006 10 16 N/A
8:55 pm 20:55 Sunny 78 25.6 66 18.8 66 66 SSE 6 9 29.71 1006 10 16 N/A
9:15 pm 21:15 Clear 76 24.2 66 18.7 71 71 SSE 5 7 29.74 1007 10 16 N/A
9:35 pm 21:35 Clear 74 23.5 65 18.5 74 74 SSE 6 9 29.74 1007 10 16 N/A
9:55 pm 21:55 Clear 73 22.7 65 18.6 78 78 SSE 6 9 29.77 1008 10 16 N/A
10:15 pm 22:15 Clear 73 22.5 66 18.7 79 79 SE 7 11 29.77 1008 10 16 N/A
10:35 pm 22:35 Clear 71 21.4 65 18.3 83 83 SE 5 7 29.80 1009 10 16 N/A
10:55 pm 22:55 Clear 71 21.5 66 18.7 84 84 SE 5 7 29.80 1009 10 16 N/A
11:15 pm 23:15 Clear 71 21.5 66 19 86 86 SSE 5 7 29.80 1009 10 16 N/A
11:35 pm 23:35 Clear 70 21.2 66 18.8 86 86 SSE 3 6 29.83 1010 10 16 N/A
11:55 pm 23:55 Clear 68 20.1 65 18.2 89 89 SE 6 9 29.80 1009 10 16 N/A

Powered by AerisWeather